Location: *
(45.1333°S, 169.6333°W)
Time: 21:19:35
(UTC+00:00)

Lacrosse 5 - Pass Details

Date: 26 May 2022
Orbit: 714 x 724 km, 57.0° (Epoch: 09 March)

Event Time Altitude Azimuth Distance (km) Brightness Sun altitude
Rises 06:56:18 0° 229° (SW) 3,157 5.9 -32.4°
Reaches altitude 10° 06:58:48 10° 223° (SW) 2,234 4.9 -32.8°
Enters shadow 07:00:46 22° 212° (SSW) 1,566 3.8 -33.2°
